Погода в Кочкурово

Россия / Республика Мордовия     54°02′14″N   45°26′01″E
темп.,
°C
ветер,
м/с
пор.,
м/с
влажн.,
%
обл.,
%
осадки,
мм/ч
давл.,
гПа
погр.,
м
11 апреля, вс
вс1100:00+1с37100100 0.0 1025204
03:00+1с39100100 0.0 1026242
06:00+1ссз38100100 0.0 1028284
09:00+3ссв49100100 0.0 1029314
12:00+4ссв4899100 0.1 1029330
15:00+3ссв4999100 4.1 1030287
18:00+4св41098100 1.4 1031344
21:00+4св51297100 1.6 1031347
12 апреля, пн
пн1200:00+4св41198100 1.6 1032298
03:00+4св41098100 2.1 1033298
06:00+4всв51298100 0.0 1033330
09:00+6всв51096100 0.0 1033364
12:00+10в688695 0.0 1033499
15:00+14в577476 0.0 1032526
18:00+12в598788 0.0 1032237
21:00+9в379069 0.0 1032104
13 апреля, вт
вт1300:00+9в2288100 0.0 103223
03:00+8вюв228672 0.0 103216
06:00+7вюв228695 0.0 103320
09:00+13юв476697 0.0 1032375
12:00+17ююв46408 0.0 10311110
15:00+18ююв46345 0.0 10301403
18:00+14ююв33535 0.0 102941
21:00+10юв22615 0.0 103012
14 апреля, ср
ср1400:00+8юв226862 0.0 103011
03:00+7вюв227311 0.0 102910
06:00+7вюв227791 0.0 102917
09:00+13юв355863 0.0 1028342
12:00+17юв453934 0.0 10261047
15:00+18юв45325 0.0 10241355
18:00+14юв34515 0.0 102460
21:00+10юв22615 0.0 102413
15 апреля, чт
чт1500:00+8вюв22647 0.0 102410
03:00+7вюв227015 0.0 102310
06:00+6юв227434 0.0 102211
09:00+12ююв245887 0.0 1021330
12:00+17ю334866 0.0 10191159
15:00+18ю234250 0.0 10171664
18:00+16юв005437 0.0 101611
21:00+13с1162100 0.0 101611